User: anonymous   Login
Location: Caltech
(34.1382°N, 118.1253°W)
Time: 19:34:48
(UTC-07:00)
Language:

Cosmos 1937 Rocket - Orbit

View from above orbital plane
View from above orbital plane
View from above satellite
View from above satellite

Ground track
Ground track

The orbit data is extracted from the following two-line orbital elements,

1 19039U 88029B   14304.84318196  .00000363  00000-0  12816-3 0  1716
2 19039 074.0487 265.7748 0024966 314.9928 067.3320 14.38067264392934
Epoch (UTC): 31 October 2014 20:14:10
Eccentricity: 0.0024966
inclination: 74.0487°
perigee height: 747 km
apogee height: 783 km
right ascension of ascending node: 265.7748°
argument of perigee: 314.9928°
revolutions per day: 14.38067264
mean anomaly at epoch: 67.3320°
orbit number at epoch: 39293

The dashed part of the orbit path shows where the satellite is in the earth's shadow,  

DLR